Orbital Elements at Epoch 2459000.5 (2020-May-31.0) TDB
Reference: JPL 23 (heliocentric ecliptic J2000)
Element | Value | Uncertainty (1-sigma) | Units |
e | .08621605796897731 | 7.1374e-08 | |
a | 2.92465490037427 | 1.7639e-08 | au |
q | 2.672502683944348 | 2.124e-07 | au |
i | 2.44148668231619 | 7.5994e-06 | deg |
node | 32.01868836871247 | 0.00014195 | deg |
peri | 279.1622958881243 | 0.00014988 | deg |
M | 239.1304466928999 | 4.9232e-05 | deg |
tp | 2459613.873184299500 (2022-Feb-03.37318430) | 0.00024994 | TDB |
period | 1826.881462751701 5.00 | 1.6527e-05 4.525e-08 | d yr |
n | .1970571202018535 | 1.7827e-09 | deg/d |
Q | 3.176807116804191 | 1.916e-08 | au |
|
| | Orbit Determination Parameters
Additional Information
|